Location: Brad
(46.1333°N, 22.7833°E)
Time: 21:49:58
(UTC+00:00)

USA 290 - Pass Details

Date: 03 February 2023
Orbit: 401 x 409 km, 73.6° (Epoch: 13 March)

Event Time Altitude Azimuth Distance (km) Brightness Sun altitude
Rises 15:53:52 0° 207° (SSW) 2,336 6.9 -3.7°
Reaches altitude 10° 15:55:54 10° 211° (SSW) 1,482 5.9 -4.0°
Maximum altitude 15:59:08 64° 293° (WNW) 466 2.7 -4.5°
Drops below altitude 10° 16:02:25 10° 17° (NNE) 1,504 4.7 -5.1°
Enters shadow 16:05:25 -3° 21° (NNE) 2,764 6.0 -5.6°
